Location: Borger
(52.9222°N, 6.7926°E)
Time: 12:29:22
(UTC+00:00)

Cosmos 1602 Rocket - Pass Details

Date: 15 May 2026
Orbit: 597 x 625 km, 82.5° (Epoch: 8 June)

Event Time Altitude Azimuth Distance (km) Brightness Sun altitude
Rises 20:38:02 0° 349° (N) 2,861 8.1 -9.1°
Reaches altitude 10° 20:40:15 10° 350° (N) 1,956 7.2 -9.3°
Maximum altitude 20:44:35 83° 78° (ENE) 616 3.5 -9.7°
Enters shadow 20:48:45 11° 168° (SSE) 1,886 5.5 -10.1°
